This demonstration page uses our WeatherBlox Daily Observations layout. Learn more.

Left ArrowRight Arrow

39.51506, -84.39828

Hourly Observations for May 28, 2021

Temp ( °F °C ) Dew Point ( °F °C ) Humidity (%) Winds ( mph kmh ) Pressure ( in mb ) Visibility ( mi km ) Precip ( " mm )
12:15 am 00:15 Mostly Cloudy 65 18.6 65 18.4 99 99 Calm 29.92 1013 10 16 0.00 0.00
12:35 am 00:35 Cloudy 64 18 64 18 100 100 NNE 3 6 29.91 1013 10 16 0.00 0.00
12:55 am 00:55 Partly Cloudy 66 18.9 66 18.7 99 99 Calm 29.91 1013 10 16 0.00 0.00
1:15 am 01:15 Cloudy 66 19 66 19 100 100 Calm 29.91 1013 10 16 0.00 0.00
1:35 am 01:35 Mostly Cloudy 66 19.1 66 18.7 98 98 Calm 29.90 1012 10 16 0.00 0.00
1:55 am 01:55 Mostly Cloudy 70 21.3 64 17.6 80 80 Calm 29.88 1012 10 16 0.00 0.00
2:15 am 02:15 Mostly Cloudy 71 21.5 64 17.5 78 78 SSE 3 6 29.87 1012 10 16 0.00 0.00
2:35 am 02:35 Cloudy with Light Rain 69 20.5 65 18.3 87 87 SSE 3 6 29.86 1011 10 16 0.00 0.00
2:55 am 02:55 Cloudy with Rain 67 19.4 66 18.9 97 97 WNW 10 17 29.89 1012 5 8 0.02 0.51
3:15 am 03:15 Partly Cloudy with Light Rain 66 19 66 18.8 99 99 Calm 29.87 1011 10 16 0.01 0.25
3:35 am 03:35 Cloudy with Mist and Fog 66 19 66 19 100 100 Calm 29.86 1011 7 11 0.01 0.25
3:55 am 03:55 Cloudy with Light Rain 66 19 N/A N/A Calm 29.85 1011 4 6 0.03 0.76
4:15 am 04:15 Cloudy with Haze 66 19 N/A N/A ENE 3 6 29.85 1011 5 8 0.00 0.00
4:35 am 04:35 Cloudy with Haze 66 19 N/A N/A E 3 6 29.83 1010 4 6 0.00 0.00
4:55 am 04:55 Cloudy with Haze 66 19 N/A N/A NNE 5 7 29.82 1010 5 8 0.00 0.00
5:15 am 05:15 Cloudy with Haze 66 19 N/A N/A ENE 3 6 29.82 1010 5 8 0.00 0.00
5:35 am 05:35 Cloudy with Heavy Rain 66 19 N/A N/A Calm 29.83 1010 3 5 0.05 1.27
5:55 am 05:55 Cloudy with Rain 66 19 N/A N/A N 5 7 29.83 1010 4 6 0.09 2.29
6:15 am 06:15 Cloudy with Light Rain 64 18 N/A N/A Calm 29.83 1010 5 8 0.01 0.25
6:35 am 06:35 Cloudy with Heavy Rain 64 18 N/A N/A Calm 29.83 1010 1 1 0.18 4.57
6:55 am 06:55 Cloudy with Light Rain 64 18 N/A N/A ESE 3 6 29.82 1010 3 4 0.20 5.08
7:15 am 07:15 Cloudy with Mist and Fog 64 18 N/A N/A Calm 29.82 1010 3 4 0.00 0.00
7:35 am 07:35 Partly Cloudy with Mist and Fog 64 18 N/A N/A N 3 6 29.81 1009 3 4 0.00 0.00
7:55 am 07:55 Mostly Cloudy with Mist and Fog 66 19 N/A N/A N 3 6 29.81 1009 3 5 0.00 0.00
8:15 am 08:15 Cloudy with Haze 66 19 N/A N/A Calm 29.81 1009 5 8 0.00 0.00
8:35 am 08:35 Cloudy with Haze 66 19 N/A N/A SW 6 9 29.81 1009 7 11 0.00 0.00
8:55 am 08:55 Mostly Cloudy with Haze 66 19 N/A N/A SSW 5 7 29.81 1009 5 8 0.00 0.00
9:15 am 09:15 Mostly Cloudy with Haze 68 20 N/A N/A WSW 7 11 29.80 1009 7 11 0.00 0.00
9:35 am 09:35 Cloudy with Haze 68 20 N/A N/A SSW 6 9 29.80 1009 5 8 0.00 0.00
9:55 am 09:55 Cloudy 68 20 N/A N/A SW 8 13 29.80 1009 7 11 0.00 0.00
10:15 am 10:15 Cloudy with Drizzle 66 19 N/A N/A SW 7 11 29.80 1009 7 11 0.00 0.00
10:35 am 10:35 Cloudy 68 20 N/A N/A WSW 8 13 29.79 1009 10 16 0.00 0.00
10:55 am 10:55 Cloudy with Light Rain 68 20 68 20 100 100 WSW 7 11 29.79 1009 7 11 0.00 0.00
11:15 am 11:15 Cloudy with Light Rain 68 20 N/A N/A WSW 7 11 29.79 1009 10 16 0.00 0.00
11:35 am 11:35 Cloudy 68 20.1 68 20.1 100 100 WSW 7 11 29.78 1009 10 16 0.00 0.00
11:55 am 11:55 Cloudy 68 20 68 19.8 99 99 WSW 8 13 29.78 1009 10 16 0.00 0.00
12:15 pm 12:15 Cloudy with Light Rain 68 20 68 20 100 100 WNW 3 6 29.78 1009 10 16 0.00 0.00
12:35 pm 12:35 Mostly Cloudy 69 20.8 68 19.9 95 95 W 12 19 29.78 1009 10 16 0.00 0.00
12:55 pm 12:55 Cloudy 69 20.8 67 19.7 93 93 NW 6 9 29.78 1009 10 16 0.00 0.00
1:15 pm 13:15 Mostly Cloudy 70 21 67 19.2 90 90 NW 9 15 29.78 1009 10 16 0.00 0.00
1:35 pm 13:35 Cloudy 63 17.3 62 16.4 94 94 N 13 20 29.80 1009 10 16 0.00 0.00
1:55 pm 13:55 Cloudy 63 17.3 61 16 92 92 N 14 22 29.80 1009 10 16 0.00 0.00
2:15 pm 14:15 Cloudy 63 17 60 15.5 91 91 NE 13 20 29.80 1009 10 16 0.00 0.00
2:35 pm 14:35 Cloudy with Light Rain 62 16.4 59 15.2 93 93 NE 9 15 29.80 1009 10 16 0.01 0.25
2:55 pm 14:55 Cloudy with Light Rain 62 16.6 60 15.6 94 94 NE 10 17 29.79 1009 10 16 0.01 0.25
3:15 pm 15:15 Cloudy with Light Rain 62 16.8 60 15.6 93 93 NE 12 19 29.79 1009 10 16 0.00 0.00
3:35 pm 15:35 Cloudy 62 16.6 59 15.2 92 92 N 13 20 29.79 1009 10 16 0.00 0.00
3:55 pm 15:55 Cloudy 61 16.2 58 14.3 89 89 NNE 12 19 29.80 1009 10 16 0.00 0.00
4:15 pm 16:15 Cloudy 60 15.5 57 13.7 89 89 NNE 15 24 29.81 1009 10 16 0.00 0.00
4:35 pm 16:35 Cloudy 60 15.6 56 13.3 86 86 NNE 12 19 29.82 1010 10 16 0.00 0.00
4:55 pm 16:55 Cloudy 59 15.2 55 12.5 84 84 NE 15 24 29.81 1009 10 16 0.00 0.00
5:15 pm 17:15 Cloudy 58 14.7 54 12.3 86 86 NE 16 26 29.82 1010 10 16 0.00 0.00
5:35 pm 17:35 Cloudy 57 14 52 11.2 83 83 NNE 18 30 29.82 1010 10 16 0.00 0.00
5:55 pm 17:55 Cloudy 56 13.3 51 10.8 85 85 NE 16 26 29.83 1010 10 16 0.00 0.00
6:15 pm 18:15 Cloudy with Light Rain 55 12.8 51 10.7 87 87 NNE 17 28 29.85 1011 10 16 0.00 0.00
6:35 pm 18:35 Cloudy with Rain 53 11.5 52 11 97 97 NNE 21 33 29.88 1012 5 8 0.08 2.03
6:55 pm 18:55 Cloudy with Light Rain 52 11.1 51 10.3 95 95 NNE 20 31 29.90 1012 7 11 0.09 2.29
7:15 pm 19:15 Cloudy with Rain 51 10.8 51 10.4 97 97 NNE 18 30 29.90 1012 5 8 0.03 0.76
7:35 pm 19:35 Cloudy with Rain 51 10.4 50 10 97 97 NE 12 19 29.91 1013 5 8 0.10 2.54
7:55 pm 19:55 Cloudy with Light Rain 51 10.5 50 10.2 98 98 ENE 13 20 29.87 1011 5 8 0.13 3.30
8:15 pm 20:15 Cloudy with Light Rain 51 10.6 51 10.3 98 98 ENE 21 33 29.85 1011 10 16 0.01 0.25
8:35 pm 20:35 Cloudy 51 10.5 50 9.8 95 95 ENE 18 30 29.84 1010 10 16 0.01 0.25
8:55 pm 20:55 Cloudy 51 10.3 50 9.8 97 97 E 18 30 29.84 1010 10 16 0.01 0.25
9:15 pm 21:15 Cloudy 51 10.4 49 9.7 95 95 NE 8 13 29.87 1011 10 16 0.00 0.00
9:35 pm 21:35 Cloudy 51 10.4 49 9.6 95 95 NNE 7 11 29.89 1012 10 16 0.00 0.00
9:55 pm 21:55 Cloudy 51 10.3 49 9.4 94 94 NNE 8 13 29.92 1013 10 16 0.00 0.00
10:15 pm 22:15 Cloudy 50 10.1 48 9 93 93 NNE 14 22 29.93 1013 10 16 0.00 0.00
10:35 pm 22:35 Cloudy 50 10 47 8.6 91 91 NNE 10 17 29.95 1014 10 16 0.00 0.00
10:55 pm 22:55 Cloudy 50 9.9 48 8.7 92 92 NNE 13 20 29.95 1014 10 16 0.00 0.00
11:15 pm 23:15 Cloudy 49 9.5 47 8.2 92 92 NNE 15 24 29.96 1015 10 16 0.00 0.00
11:35 pm 23:35 Cloudy 49 9.4 46 8 91 91 NE 13 20 29.97 1015 10 16 0.00 0.00
11:55 pm 23:55 Cloudy 49 9.2 46 8 92 92 NNE 16 26 29.97 1015 10 16 0.00 0.00

Powered by AerisWeather